FW4202 Blackshear GA US current weather conditions

sailwx.info

Wind from 044 at 0 knots gusting 4

Air temperature 33.9° C
Dewpoint 26.4° C

Last reported at 2020-Aug-12 17:55 UTC.
Time now 2020-Aug-12 18:23 UTC

Location: N 31°14' W 082°17'.
View on Google Maps.

See reports from other nearby stations

  
Tides and Currents Weather Stations Pressure Air Temp Water Temp Dewpoint Dewpoint Depression Visibility Wind Speed Wind Dir Waves Ship Positions
date/time (UTC)wind fromknots sea level pressurealtimeterstation pressurevisibilityair tempwater tempwave heightnotes
2020-Aug-12 18:05 111 0 gusting 3 33.3
2020-Aug-12 18:00 065 0 gusting 3 33.9
2020-Aug-12 17:55 044 0 gusting 4 33.9
2020-Aug-12 17:50 053 0 gusting 4 33.3
2020-Aug-12 17:46 037 0 gusting 4 33.3
2020-Aug-12 17:40 033 1 gusting 3 33.3
2020-Aug-12 17:35 112 0 gusting 4 32.8
2020-Aug-12 17:25 131 0 gusting 5 32.8
2020-Aug-12 17:20 042 1 gusting 3 32.8
2020-Aug-12 17:10 116 32.2
2020-Aug-12 17:05 019 1 gusting 5 32.2
2020-Aug-12 16:55 059 0 gusting 4 32.8
2020-Aug-12 16:50 050 2 gusting 4 32.8
2020-Aug-12 16:40 072 32.2
2020-Aug-12 16:35 054 0 gusting 3 31.7
2020-Aug-12 16:30 032 1 gusting 2 31.7
2020-Aug-12 16:25 037 1 gusting 5 31.1
2020-Aug-12 16:20 110 0 gusting 4 31.7
2020-Aug-12 16:11 111 32.2
2020-Aug-12 16:05 103 32.2
2020-Aug-12 16:01 037 0 gusting 2 31.7
2020-Aug-12 15:55 039 0 gusting 2 31.7
2020-Aug-12 15:50 066 0 gusting 2 31.1
2020-Aug-12 15:47 073 0 gusting 2 31.1
2020-Aug-12 15:40 056 0 gusting 2 30.6
2020-Aug-12 15:36 104 0 gusting 2 30.6
2020-Aug-12 15:31 080 0 gusting 1 30.6
2020-Aug-12 15:25 096 0 gusting 1 30.6
2020-Aug-12 15:20 172 0 gusting 2 30.0
2020-Aug-12 15:10 110 0 gusting 2 30.6
2020-Aug-12 15:06 103 0 gusting 1 30.0
2020-Aug-12 15:01 141 29.4
2020-Aug-12 14:55 054 29.4
2020-Aug-12 14:50 123 0 gusting 1 29.4
2020-Aug-12 14:46 153 28.9
2020-Aug-12 14:40 120 0 gusting 2 29.4
2020-Aug-12 14:35 032 0 gusting 2 29.4
2020-Aug-12 14:32 085 28.9
2020-Aug-12 14:25 129 28.3
2020-Aug-12 14:20 107 27.8
2020-Aug-12 14:10 093 27.8
2020-Aug-12 14:05 106 27.2
2020-Aug-12 14:01 145 26.7
2020-Aug-12 13:55 107 26.7
2020-Aug-12 13:50 077 0 gusting 1 26.1
2020-Aug-12 13:46 109 25.6
2020-Aug-12 13:40 107 0 gusting 4 25.6
2020-Aug-12 13:35 089 25.6
2020-Aug-12 13:30 088 25.0
2020-Aug-12 13:25 091 25.0
2020-Aug-12 13:20 096 25.0
2020-Aug-12 13:10 070 24.4
2020-Aug-12 13:05 044 0 gusting 2 23.9
2020-Aug-12 13:00 032 0 gusting 2 23.9
2020-Aug-12 12:55 078 23.9
2020-Aug-12 12:50 027 0 gusting 3 23.3
2020-Aug-12 12:45 124 23.3
2020-Aug-12 12:40 102 23.3
2020-Aug-12 12:35 108 23.3
2020-Aug-12 12:25 108 22.8
2020-Aug-12 12:20 108 22.8
2020-Aug-12 12:10 111 22.8
2020-Aug-12 12:05 110 22.8
2020-Aug-12 12:01 110 22.8
2020-Aug-12 11:55 110 22.8
2020-Aug-12 11:50 087 0 gusting 3 22.2
2020-Aug-12 11:46 126 22.2
2020-Aug-12 11:40 110 22.2
2020-Aug-12 11:35 110 22.2
2020-Aug-12 11:31 110 22.2
2020-Aug-12 11:25 111 22.2
2020-Aug-12 11:20 111 22.2
2020-Aug-12 11:10 126 22.2
2020-Aug-12 11:05 126 22.2
2020-Aug-12 11:01 126 22.2
2020-Aug-12 10:55 126 21.7
2020-Aug-12 10:50 133 21.7
2020-Aug-12 10:46 134 21.7
2020-Aug-12 10:40 133 21.7
2020-Aug-12 10:35 134 21.7
2020-Aug-12 10:31 134 21.7
2020-Aug-12 10:25 134 21.7
2020-Aug-12 10:20 134 21.7
2020-Aug-12 10:10 134 21.7
2020-Aug-12 10:05 134 21.7
2020-Aug-12 10:01 133 21.7
2020-Aug-12 09:55 134 21.7
2020-Aug-12 09:50 133 21.7
2020-Aug-12 09:45 134 21.7
2020-Aug-12 09:40 134 21.7
2020-Aug-12 09:35 133 21.7
2020-Aug-12 09:30 133 21.7
2020-Aug-12 09:25 134 21.7
2020-Aug-12 09:20 133 21.7
2020-Aug-12 09:10 133 21.7
2020-Aug-12 09:05 133 21.7
2020-Aug-12 09:00 133 21.7
2020-Aug-12 08:55 133 21.7
2020-Aug-12 08:50 134 21.7
2020-Aug-12 08:45 133 21.7
2020-Aug-12 08:40 133 21.7
2020-Aug-12 08:35 134 21.7
2020-Aug-12 08:30 134 21.7
2020-Aug-12 08:25 133 21.7
2020-Aug-12 08:20 133 21.7
2020-Aug-12 08:10 134 21.7
2020-Aug-12 08:05 134 21.7
2020-Aug-12 08:00 134 21.7
2020-Aug-12 07:55 133 21.7
2020-Aug-12 07:50 134 21.7
2020-Aug-12 07:46 134 21.7
2020-Aug-12 07:40 133 21.7
2020-Aug-12 07:35 145 21.7
2020-Aug-12 07:30 145 21.7
2020-Aug-12 07:25 145 21.7
2020-Aug-12 07:20 145 21.7
2020-Aug-12 07:10 145 22.2
2020-Aug-12 07:05 145 22.2
2020-Aug-12 07:00 145 22.2
2020-Aug-12 06:55 145 22.2
2020-Aug-12 06:50 145 22.2
2020-Aug-12 06:45 145 22.2
2020-Aug-12 06:40 145 22.2
2020-Aug-12 06:35 145 22.2
2020-Aug-12 06:31 145 22.2
2020-Aug-12 06:25 146 22.2
2020-Aug-12 06:20 143 22.2
2020-Aug-12 06:10 143 22.2
2020-Aug-12 06:05 140 22.2
2020-Aug-12 06:00 140 22.2
2020-Aug-12 05:55 139 22.2
2020-Aug-12 05:50 139 22.2
2020-Aug-12 05:45 139 22.2
2020-Aug-12 05:40 140 22.2
2020-Aug-12 05:35 139 22.2
2020-Aug-12 05:31 143 22.2
2020-Aug-12 05:25 143 22.2
2020-Aug-12 05:20 143 22.2
2020-Aug-12 05:10 143 22.2
2020-Aug-12 05:05 143 22.2
2020-Aug-12 05:00 120 22.2
2020-Aug-12 04:55 121 22.2
2020-Aug-12 04:45 121 22.2
2020-Aug-12 04:40 114 22.2
2020-Aug-12 04:30 114 22.2
2020-Aug-12 04:25 117 22.2
2020-Aug-12 04:20 117 22.2
2020-Aug-12 04:10 129 22.2
2020-Aug-12 04:05 135 22.2
2020-Aug-12 04:00 136 22.2
2020-Aug-12 03:55 136 22.2
2020-Aug-12 03:45 104 22.2
2020-Aug-12 03:40 104 22.2
2020-Aug-12 03:35 104 22.2
2020-Aug-12 03:30 104 22.8
2020-Aug-12 03:25 105 22.8
2020-Aug-12 03:20 104 22.8
2020-Aug-12 03:10 104 22.8
2020-Aug-12 03:05 104 22.8
2020-Aug-12 02:55 104 22.8
2020-Aug-12 02:50 104 22.8
2020-Aug-12 02:45 104 22.8
2020-Aug-12 02:40 104 22.8
2020-Aug-12 02:35 103 22.8
2020-Aug-12 02:25 103 22.8
2020-Aug-12 02:20 103 22.8
2020-Aug-12 02:10 102 22.8
2020-Aug-12 02:00 094 22.8
2020-Aug-12 01:55 070 22.8
2020-Aug-12 01:50 088 22.8
2020-Aug-12 01:40 112 22.8
2020-Aug-12 01:30 113 23.3
2020-Aug-12 01:25 080 23.3
2020-Aug-12 01:20 138 23.3
2020-Aug-12 01:15 125 1 gusting 5 23.3
2020-Aug-12 01:10 104 0 gusting 3 23.3
2020-Aug-12 01:05 098 23.3
2020-Aug-12 00:55 095 0 gusting 6 23.9
2020-Aug-12 00:50 032 2 gusting 5 23.9
2020-Aug-12 00:36 049 1 gusting 6 23.9
2020-Aug-12 00:31 033 2 gusting 6 23.9
2020-Aug-12 00:25 110 24.4
2020-Aug-12 00:20 078 1 gusting 6 24.4
2020-Aug-12 00:17 093 24.4
2020-Aug-12 00:10 037 1 gusting 5 24.4
2020-Aug-12 00:06 026 3 gusting 5 24.4
2020-Aug-12 00:01 020 2 gusting 4 25.0
2020-Aug-11 23:55 069 1 gusting 6 25.6
2020-Aug-11 23:50 039 2 gusting 6 26.1
2020-Aug-11 23:40 032 3 gusting 6 26.7
2020-Aug-11 23:36 030 3 gusting 8 26.7
2020-Aug-11 23:31 030 2 gusting 8 27.2
2020-Aug-11 23:25 051 2 gusting 9 27.8
2020-Aug-11 23:20 269 2 gusting 9 28.9
2020-Aug-11 23:16 348 2 gusting 11 29.4
2020-Aug-11 23:10 060 6 gusting 11 31.1
2020-Aug-11 23:05 184 32.8
2020-Aug-11 23:02 183 33.3
2020-Aug-11 22:56 183 33.9
2020-Aug-11 22:50 228 34.4
2020-Aug-11 22:40 163 34.4
2020-Aug-11 22:35 165 33.9
2020-Aug-11 22:31 166 33.9
2020-Aug-11 22:25 162 33.9
2020-Aug-11 22:20 162 33.3
2020-Aug-11 22:17 161 33.3
2020-Aug-11 22:10 161 33.3
2020-Aug-11 22:05 139 33.3
2020-Aug-11 22:01 141 0 gusting 2 33.3
2020-Aug-11 21:56 139 33.3
2020-Aug-11 21:40 122 33.9
2020-Aug-11 21:35 137 0 gusting 2 34.4
2020-Aug-11 21:31 165 35.0
2020-Aug-11 21:25 154 34.4
2020-Aug-11 21:21 148 0 gusting 4 34.4
2020-Aug-11 21:16 076 35.0
2020-Aug-11 21:10 113 34.4
2020-Aug-11 21:05 130 0 gusting 2 34.4
2020-Aug-11 21:00 118 0 gusting 2 34.4
2020-Aug-11 20:55 173 0 gusting 5 34.4
2020-Aug-11 20:50 107 0 gusting 5 34.4
2020-Aug-11 20:40 096 35.0
2020-Aug-11 20:35 058 0 gusting 2 35.0
2020-Aug-11 20:30 098 34.4
2020-Aug-11 20:25 124 0 gusting 4 33.9
2020-Aug-11 20:20 153 1 gusting 4 33.9
2020-Aug-11 20:15 106 1 gusting 5 34.4
2020-Aug-11 20:10 099 0 gusting 5 34.4
2020-Aug-11 20:05 098 0 gusting 2 34.4
2020-Aug-11 20:01 076 34.4
2020-Aug-11 19:55 103 0 gusting 3 33.9
2020-Aug-11 19:50 098 0 gusting 6 33.9
2020-Aug-11 19:40 252 1 gusting 3 34.4
2020-Aug-11 19:35 274 0 gusting 2 33.9
2020-Aug-11 19:31 110 0 gusting 2 33.9
2020-Aug-11 19:25 116 33.9
2020-Aug-11 19:20 185 0 gusting 4 33.9
2020-Aug-11 19:16 105 1 gusting 5 33.3
2020-Aug-11 19:10 124 1 gusting 5 33.9
2020-Aug-11 19:05 108 33.9
2020-Aug-11 19:00 122 33.9
2020-Aug-11 18:55 146 33.3
2020-Aug-11 18:50 134 1 gusting 3 33.3
2020-Aug-11 18:40 114 33.3
2020-Aug-11 18:35 093 1 gusting 3 33.3
2020-Aug-11 18:31 104 33.3
2020-Aug-11 18:25 077 33.3
2020-Aug-11 18:20 053 33.3
2020-Aug-11 18:16 229 0 gusting 2 32.8
2020-Aug-11 18:10 055 32.8
2020-Aug-11 18:05 221 1 gusting 4 32.8
2020-Aug-11 18:00 179 32.8
2020-Aug-11 17:55 106 0 gusting 2 32.8
2020-Aug-11 17:50 046 32.2
2020-Aug-11 17:40 184 0 gusting 4 31.7
2020-Aug-11 17:30 192 31.7
2020-Aug-11 17:25 117 31.7
2020-Aug-11 17:20 122 0 gusting 4 31.7
2020-Aug-11 17:15 131 1 gusting 4 31.7
2020-Aug-11 17:10 208 0 gusting 3 31.7
2020-Aug-11 17:05 136 31.1
2020-Aug-11 17:00 204 1 gusting 5 31.1
2020-Aug-11 16:55 095 1 gusting 5 31.1
2020-Aug-11 16:50 143 31.1
2020-Aug-11 16:41 168 31.7
2020-Aug-11 16:36 157 0 gusting 2 31.7
2020-Aug-11 16:31 172 31.7
2020-Aug-11 16:26 131 31.7
2020-Aug-11 16:21 103 31.7
2020-Aug-11 16:16 095 31.1
2020-Aug-11 16:10 165 30.6
2020-Aug-11 16:05 122 0 gusting 5 30.6
2020-Aug-11 16:01 160 1 gusting 5 30.6
2020-Aug-11 15:55 157 30.6
2020-Aug-11 15:50 060 30.6
2020-Aug-11 15:40 178 30.0
2020-Aug-11 15:36 176 0 gusting 3 30.0
2020-Aug-11 15:32 098 0 gusting 4 29.4
2020-Aug-11 15:25 155 0 gusting 4 29.4
2020-Aug-11 15:20 171 29.4
2020-Aug-11 15:16 162 28.9
2020-Aug-11 15:10 141 0 gusting 5 28.9
2020-Aug-11 15:05 144 0 gusting 5 28.3
2020-Aug-11 15:02 120 1 gusting 5 28.3
2020-Aug-11 14:55 111 0 gusting 2 28.9
2020-Aug-11 14:51 105 27.8
2020-Aug-11 14:40 093 0 gusting 2 27.8
2020-Aug-11 14:35 105 27.2
2020-Aug-11 14:31 125 27.2
2020-Aug-11 14:25 122 27.2
2020-Aug-11 14:20 105 26.7
2020-Aug-11 14:16 106 26.7
2020-Aug-11 14:10 120 26.7
2020-Aug-11 14:05 108 26.7
2020-Aug-11 14:01 095 0 gusting 3 26.7
2020-Aug-11 13:55 076 26.7
2020-Aug-11 13:50 035 0 gusting 3 26.7
2020-Aug-11 13:40 036 1 gusting 2 26.7
2020-Aug-11 13:35 107 26.7
2020-Aug-11 13:31 106 26.7
2020-Aug-11 13:25 082 0 gusting 2 26.7
2020-Aug-11 13:20 081 26.1
2020-Aug-11 13:17 070 0 gusting 3 26.1
2020-Aug-11 13:10 034 0 gusting 3 25.6
2020-Aug-11 13:05 025 1 gusting 3 25.6
2020-Aug-11 13:01 061 0 gusting 2 25.0
2020-Aug-11 12:55 084 0 gusting 3 25.0
2020-Aug-11 12:50 062 0 gusting 3 25.0
2020-Aug-11 12:40 047 0 gusting 2 24.4
2020-Aug-11 12:35 039 0 gusting 2 24.4
2020-Aug-11 12:30 089 0 gusting 1 23.9
2020-Aug-11 12:25 094 23.9
2020-Aug-11 12:20 117 23.3
2020-Aug-11 12:16 116 23.3
2020-Aug-11 12:10 117 22.8
2020-Aug-11 12:05 117 22.8
2020-Aug-11 12:00 117 22.2
2020-Aug-11 11:55 117 22.2
2020-Aug-11 11:50 117 22.2
2020-Aug-11 11:40 117 21.7
2020-Aug-11 11:35 117 21.7
2020-Aug-11 11:31 117 21.7
2020-Aug-11 11:25 117 21.7
2020-Aug-11 11:20 117 21.7
2020-Aug-11 11:16 117 21.7
2020-Aug-11 11:10 117 21.7
2020-Aug-11 11:05 117 21.7
2020-Aug-11 11:01 117 21.7
2020-Aug-11 10:55 117 21.7
2020-Aug-11 10:50 117 21.7
2020-Aug-11 10:40 117 21.7
2020-Aug-11 10:35 117 21.7
2020-Aug-11 10:30 117 21.7
2020-Aug-11 10:25 117 21.7
2020-Aug-11 10:20 117 21.7
2020-Aug-11 10:15 117 21.7
2020-Aug-11 10:10 117 21.7
2020-Aug-11 10:05 116 21.7
2020-Aug-11 10:00 117 21.7
2020-Aug-11 09:55 117 21.7
2020-Aug-11 09:50 117 21.7
2020-Aug-11 09:40 117 21.7
2020-Aug-11 09:35 117 21.7
2020-Aug-11 09:30 116 21.7
2020-Aug-11 09:25 116 21.7
2020-Aug-11 09:20 117 22.2
2020-Aug-11 09:15 117 22.2
2020-Aug-11 09:10 117 22.2
2020-Aug-11 09:05 117 22.2
2020-Aug-11 09:00 117 22.2
2020-Aug-11 08:55 117 22.2
2020-Aug-11 08:50 117 22.2
2020-Aug-11 08:40 117 22.2
2020-Aug-11 08:35 117 22.2
2020-Aug-11 08:31 117 22.2
2020-Aug-11 08:25 117 22.2
2020-Aug-11 08:20 117 22.2
2020-Aug-11 08:15 117 22.2
2020-Aug-11 08:10 117 22.2
2020-Aug-11 08:05 117 22.2
2020-Aug-11 07:55 117 22.2
2020-Aug-11 07:50 117 22.2
2020-Aug-11 07:40 117 22.2
2020-Aug-11 07:35 116 22.2
2020-Aug-11 07:30 117 22.2
2020-Aug-11 07:25 117 22.2
2020-Aug-11 07:20 117 22.2
2020-Aug-11 07:15 117 22.2
2020-Aug-11 07:10 117 22.2
2020-Aug-11 07:05 117 22.2
2020-Aug-11 07:00 117 22.2
2020-Aug-11 06:55 117 22.2
2020-Aug-11 06:50 115 22.2
2020-Aug-11 06:40 114 22.2
2020-Aug-11 06:35 115 22.2
2020-Aug-11 06:31 114 22.2
2020-Aug-11 06:25 114 22.2
2020-Aug-11 06:20 115 22.2
2020-Aug-11 06:15 114 22.2
2020-Aug-11 06:10 115 22.2
2020-Aug-11 06:05 114 22.2
2020-Aug-11 06:00 115 22.2
2020-Aug-11 05:55 114 22.2
2020-Aug-11 05:50 114 22.2
2020-Aug-11 05:40 115 22.2
2020-Aug-11 05:35 115 22.2
2020-Aug-11 05:31 115 22.2
2020-Aug-11 05:25 114 22.2
2020-Aug-11 05:20 115 22.2
2020-Aug-11 05:15 115 22.2
2020-Aug-11 05:10 115 22.2
2020-Aug-11 05:05 115 22.2
2020-Aug-11 05:00 114 22.2
2020-Aug-11 04:55 115 22.2
2020-Aug-11 04:50 115 22.2
2020-Aug-11 04:40 115 22.2
2020-Aug-11 04:35 115 22.2
2020-Aug-11 04:30 115 22.2
2020-Aug-11 04:25 115 22.8
2020-Aug-11 04:20 114 22.8
2020-Aug-11 04:15 114 22.8
2020-Aug-11 04:10 114 22.8
2020-Aug-11 04:05 114 22.8
2020-Aug-11 04:00 114 22.8
2020-Aug-11 03:55 114 22.8
2020-Aug-11 03:50 114 22.8
2020-Aug-11 03:40 113 22.8
2020-Aug-11 03:35 113 22.8
2020-Aug-11 03:30 113 22.8
2020-Aug-11 03:25 084 22.8
2020-Aug-11 03:20 082 22.8
2020-Aug-11 03:16 082 22.8
2020-Aug-11 03:10 082 22.8
2020-Aug-11 03:05 083 22.8
2020-Aug-11 03:00 087 22.8
2020-Aug-11 02:55 122 22.8
2020-Aug-11 02:50 122 22.8
2020-Aug-11 02:40 122 22.8
2020-Aug-11 02:35 122 22.8
2020-Aug-11 02:30 122 22.8
2020-Aug-11 02:25 122 22.8
2020-Aug-11 02:20 122 22.8
2020-Aug-11 02:15 122 22.8
2020-Aug-11 02:10 122 23.3
2020-Aug-11 02:05 122 23.3
2020-Aug-11 01:55 122 23.3
2020-Aug-11 01:50 122 23.3
2020-Aug-11 01:40 122 23.3
2020-Aug-11 01:35 122 23.9
2020-Aug-11 01:30 146 0 gusting 3 23.3
2020-Aug-11 01:25 134 1 gusting 3 23.3
2020-Aug-11 01:15 135 0 gusting 3 23.3
2020-Aug-11 01:10 113 23.3
2020-Aug-11 01:05 113 23.3
2020-Aug-11 00:55 113 23.3
2020-Aug-11 00:50 113 23.3
2020-Aug-11 00:40 113 23.3
2020-Aug-11 00:35 113 23.9
2020-Aug-11 00:25 107 23.9
2020-Aug-11 00:20 108 23.9
2020-Aug-11 00:10 104 23.9
2020-Aug-11 00:05 103 23.9
2020-Aug-10 23:55 119 24.4
2020-Aug-10 23:50 120 24.4
2020-Aug-10 23:40 120 24.4
2020-Aug-10 23:35 155 24.4
2020-Aug-10 23:25 084 24.4
2020-Aug-10 23:20 083 24.4
2020-Aug-10 23:10 091 24.4
2020-Aug-10 23:05 091 24.4
2020-Aug-10 22:55 278 24.4
2020-Aug-10 22:50 278 24.4
2020-Aug-10 22:40 278 24.4
2020-Aug-10 22:35 278 24.4
2020-Aug-10 22:25 155 24.4
2020-Aug-10 22:20 155 23.9
2020-Aug-10 22:15 155 23.9
2020-Aug-10 22:10 155 23.9
2020-Aug-10 22:05 155 23.9
2020-Aug-10 21:55 155 23.9
2020-Aug-10 21:50 155 23.3
2020-Aug-10 21:40 156 23.3
2020-Aug-10 21:35 156 23.3
2020-Aug-10 21:30 155 23.3
2020-Aug-10 21:20 172 23.3
2020-Aug-10 21:15 122 23.3
2020-Aug-10 21:10 094 23.3
2020-Aug-10 21:05 094 23.3
2020-Aug-10 21:00 094 23.3
2020-Aug-10 20:51 104 23.3
2020-Aug-10 20:46 114 23.3
2020-Aug-10 20:40 106 23.3
2020-Aug-10 20:35 137 23.3
2020-Aug-10 20:30 141 23.3
2020-Aug-10 20:25 147 23.3
2020-Aug-10 20:20 137 0 gusting 6 23.3
2020-Aug-10 20:15 133 1 gusting 6 23.3
2020-Aug-10 20:10 186 1 gusting 4 23.3
2020-Aug-10 20:05 104 0 gusting 4 23.3
2020-Aug-10 19:55 117 0 gusting 5 23.9
2020-Aug-10 19:50 084 23.9
2020-Aug-10 19:46 079 0 gusting 6 24.4
2020-Aug-10 19:40 107 0 gusting 6 24.4
2020-Aug-10 19:35 092 3 gusting 9 24.4
2020-Aug-10 19:25 087 4 gusting 9 25.0
2020-Aug-10 19:20 097 3 gusting 8 25.6
2020-Aug-10 19:16 117 2 gusting 8 26.1
2020-Aug-10 19:10 069 3 gusting 8 26.1
2020-Aug-10 19:05 105 0 gusting 3 26.7
2020-Aug-10 19:01 110 0 gusting 5 26.7
2020-Aug-10 18:55 104 1 gusting 5 27.2
2020-Aug-10 18:50 119 27.8
2020-Aug-10 18:45 128 28.3
2020-Aug-10 18:40 127 28.3
2020-Aug-10 18:35 184 28.9
2020-Aug-10 18:30 150 29.4
2020-Aug-10 18:25 150 30.0
2020-Aug-10 18:20 103 30.6
2020-Aug-10 18:16 041 30.6
2020-Aug-10 18:10 036 30.6
2020-Aug-10 18:05 032 31.1
2020-Aug-10 18:01 033 3 gusting 5 31.7